カタリナ彗星

C/2008 E1 ( Catalina )

English version
Home page
Total 6,336 html files since Dec. 4, 1995
Updated on July 27, 2008

---------------------------------------------------------------------

・ プロフィール

発見日 2008年3月2日
発見光度 19.2等
発見者 Catalina Sky Survey

・ 写真集

・ 軌道要素

The following orbital elements are taken from MPC 62583:

Epoch 2008 Aug. 2.0 TT = JDT 2454680.5
T 2008 Aug. 11.2841 TT                                  MPC
q   4.829707             (2000.0)            P               Q
n   0.0282563      Peri.  269.9102      -0.1270319      -0.9877926
a  10.675602       Node   189.0351      +0.9704833      -0.1425607
e   0.547594       Incl.   35.0381      -0.2050003      -0.0627880
P  34.9
From 86 observations 2007 Nov. 13-2008 Apr. 4, mean residual 0".6.

・ 光度変化

        m1 = 8.0 + 5 logΔ + 10.0 log r

---------------------------------------------------------------------

軌道要素はMPCのEphemerides and Orbital Elementsに掲載されたものです。
光度グラフはComet for Windowsで作成したものです。

---------------------------------------------------------------------

Copyright(C) 1995-2008 Seiichi Yoshida (comet@aerith.net). All rights reserved.